Location: Anuling
(14.1239°N, 120.8922°E)
Time: 05:07:01
(UTC+00:00)

Cosmos 332 Rocket - Pass Details

Date: 14 January 2026
Orbit: 672 x 693 km, 74.0° (Epoch: 11 February)

Event Time Altitude Azimuth Distance (km) Brightness Sun altitude
Rises 10:27:30 0° 360° (N) 3,030 6.9 -10.1°
Reaches altitude 10° 10:29:58 10° 9° (N) 2,118 6.0 -10.7°
Maximum altitude 10:34:19 36° 75° (ENE) 1,087 4.3 -11.6°
Drops below altitude 10° 10:38:43 10° 141° (SE) 2,129 6.1 -12.7°
Sets 10:41:10 0° 150° (SSE) 3,047 7.0 -13.2°
